This demonstration page uses our WeatherBlox Daily Observations layout. Learn more.

Left ArrowRight Arrow

39.08367, -84.50855

Hourly Observations for September 30, 2022

Temp ( °F °C ) Dew Point ( °F °C ) Humidity (%) Winds ( mph kmh ) Pressure ( in mb ) Visibility ( mi km ) Precip ( " mm )
12:53 am 00:53 Clear 46 7.8 45 7.2 96 96 Calm 30.33 1027 9 14 0.00 0.00
1:43 am 01:43 Clear with Mist and Fog 44 6.7 43 6.1 96 96 Calm 30.32 1027 2 3 0.00 0.00
1:53 am 01:53 Clear with Fog 44 6.7 43 6.1 96 96 Calm 30.31 1026 1 1 0.00 0.00
2:29 am 02:29 Clear with Mist and Fog 43 6.1 43 6.1 100 100 Calm 30.32 1027 2 3 0.00 0.00
2:36 am 02:36 Clear with Mist and Fog 43 6.1 43 6.1 100 100 Calm 30.32 1027 5 8 0.00 0.00
2:53 am 02:53 Clear 43 6.1 42 5.6 97 97 Calm 30.29 1026 7 11 0.00 0.00
3:53 am 03:53 Clear 42 5.6 40 4.4 92 92 Calm 30.29 1026 10 16 0.00 0.00
4:53 am 04:53 Clear with Mist and Fog 42 5.6 42 5.6 100 100 ENE 3 6 30.28 1025 6 10 0.00 0.00
5:53 am 05:53 Clear 42 5.6 40 4.4 92 92 Calm 30.28 1026 10 16 0.00 0.00
6:34 am 06:34 Clear with Mist and Fog 41 5 41 5 100 100 Calm 30.30 1026 1 2 0.00 0.00
6:43 am 06:43 Clear with Fog 40 4.4 39 3.9 97 97 Calm 30.30 1026 1 1 0.00 0.00
6:53 am 06:53 Clear with Patchy Fog 40 4.4 40 4.4 100 100 Calm 30.27 1025 10 16 0.00 0.00
7:53 am 07:53 Sunny 42 5.6 41 5 96 96 Calm 30.29 1026 10 16 0.00 0.00
8:53 am 08:53 Sunny 48 8.9 45 7.2 89 89 NE 7 11 30.29 1026 10 16 0.00 0.00
9:53 am 09:53 Sunny 52 11.1 46 7.8 80 80 ENE 8 13 30.28 1026 10 16 0.00 0.00
10:53 am 10:53 Sunny 57 13.9 47 8.3 69 69 ENE 6 9 30.26 1025 10 16 0.00 0.00
11:53 am 11:53 Sunny 62 16.7 47 8.3 58 58 E 3 6 30.24 1024 10 16 0.00 0.00
12:53 pm 12:53 Sunny 66 18.9 47 8.3 50 50 NE 10 17 30.22 1023 10 16 0.00 0.00
1:53 pm 13:53 Sunny 69 20.6 44 6.7 40 40 E 12 19 30.19 1022 10 16 0.00 0.00
2:53 pm 14:53 Sunny 71 21.7 45 7.2 39 39 NNE 12 19 30.15 1021 10 16 0.00 0.00
3:53 pm 15:53 Sunny 71 21.7 44 6.7 38 38 NNE 13 20 30.12 1020 10 16 0.00 0.00
4:53 pm 16:53 Sunny 71 21.7 43 6.1 36 36 NNE 13 20 30.09 1019 10 16 0.00 0.00
5:53 pm 17:53 Sunny 70 21.1 42 5.6 36 36 NE 14 22 30.08 1019 10 16 0.00 0.00
6:53 pm 18:53 Sunny 66 18.9 44 6.7 45 45 NE 7 11 30.08 1019 10 16 0.00 0.00
7:53 pm 19:53 Clear 60 15.6 42 5.6 51 51 NNE 5 7 30.08 1019 10 16 0.00 0.00
8:53 pm 20:53 Clear 54 12.2 48 8.9 80 80 Calm 30.08 1019 10 16 0.00 0.00
9:53 pm 21:53 Clear 52 11.1 47 8.3 83 83 Calm 30.08 1019 10 16 0.00 0.00
10:53 pm 22:53 Clear 51 10.6 48 8.9 89 89 Calm 30.08 1019 10 16 0.00 0.00
11:53 pm 23:53 Clear 49 9.4 45 7.2 86 86 ENE 5 7 30.07 1018 10 16 0.00 0.00

Powered by AerisWeather